Regional Weather Roundup
Issued by NWS

Home | Current Version | Previous Version | Graphics & Text | Print | Product List | Glossary On
Versions: 1 2 3 4 5 6 7 8 9 10 11 12 13 14 15 16 17 18 19 20 21 22 23 24 25 26 27 28 29 30 31 32 33 34 35 36 37 38 39 40 41 42 43 44 45 46 47 48 49 50
000
ASUS43 KLMK 021902
RWRKY
KENTUCKY REGIONAL WEATHER ROUNDUP
NATIONAL WEATHER SERVICE LOUISVILLE KY
200 PM EST MON MAR 02 2015

NOTE "FAIR" INDICATES FEW OR NO CLOUDS BELOW 12,000 FEET
WITH NO SIGNIFICANT WEATHER AND/OR OBSTRUCTIONS TO VISIBILITY.

KYZ001>023-026-027-061>063-070>075-022000-
WESTERN AND SOUTH CENTRAL KENTUCKY

CITY           SKY/WX    TMP DP  RH WIND       PRES   REMARKS
PADUCAH        MOSUNNY   37  19  48 NE13      30.45F WCI  29
HENDERSON      MOSUNNY   36  18  48 NE8       30.48F WCI  29
OWENSBORO      MOSUNNY   37  19  48 NE7       30.47F WCI  31
HOPKINSVILLE   SUNNY     40  25  55 NE13      30.41F WCI  32
BOWLING GREEN  MOSUNNY   42  23  46 E9        30.44F
GLASGOW        NOT AVBL
$$

KYZ024-025-028>034-038-045-046-053-022000-
NORTH CENTRAL KENTUCKY

CITY           SKY/WX    TMP DP  RH WIND       PRES   REMARKS
LOUISVILLE/SDF PTSUNNY   39  15  37 CALM      30.47F
LOUISVILLE/LOU SUNNY     37  15  40 CALM      30.47F
FORT KNOX      MOSUNNY   37  18  46 NE8       30.43F WCI  31
$$

KYZ035>037-039>044-047>052-055>060-089>105-022000-
NORTHEAST KENTUCKY

CITY           SKY/WX    TMP DP  RH WIND       PRES   REMARKS
LEXINGTON      MOSUNNY   35  21  56 NE9       30.45F WCI  28
COVINGTON      PTSUNNY   32  15  49 CALM      30.46F
FRANKFORT      SUNNY     35  20  54 SE6       30.44F WCI  30
$$

KYZ054-064>069-076>088-106>120-022000-
SOUTHEAST KENTUCKY

CITY           SKY/WX    TMP DP  RH WIND       PRES   REMARKS
JACKSON        SUNNY     41  20  43 CALM      30.39F
LONDON         SUNNY     42  25  50 VRB5      30.39F
SOMERSET       NOT AVBL
MIDDLESBORO    SUNNY    N/A N/A N/A CALM      30.39
MONTICELLO     CLEAR     43  29  58 NE5       30.43F
$$




USA.gov is the U.S. government's official web portal to all federal, state and local government web resources and services.